Powrót do katalogu

STARLINK-4515

AktywnyŁącznośćVLEO
NORAD 53397·PAYLOAD·🇺🇸 United States

Wystrzelony Aug 10, 2022 z Cape Canaveral Space Force Station

Loading…

Następne Przeloty (najbliższe 24 godziny)

TLE

ŚwieżeSource: CelesTrak SupGP

Epoka: Sep 14, 2026, 21:47 UTC

1 53397C 22097K   26257.90812500 -.00061232  00000+0 -17517-2 0  2579
2 53397  53.1604 348.2305 0001110  82.8640 192.0267 15.35433169    12

Śledź STARLINK-4515 w czasie rzeczywistym z AllMySat

Download on the App Store